Weather History for Sanford, ME

Change the Weather History Date:

Monday, December 23, 2013

  Actual Average Record
Temperature  
Mean Temperature 30 °F -  
Max Temperature 33 °F 33 °F 53 °F (2004)
Min Temperature 26 °F 15 °F 3 °F (2008)
Degree Days  
Heating Degree Days 36    
Moisture  
Dew Point 27 °F    
Average Humidity 89    
Maximum Humidity 100    
Minimum Humidity 80    
Precipitation  
Precipitation 0.22 in - - ()
Sea Level Pressure  
Sea Level Pressure 30.03 in    
Wind  
Wind Speed 0 mph (North)    
Max Wind Speed 0 mph    
Max Gust Speed -    
Visibility 5 miles    
Events      
Averages and records for this station are not official NWS values.
T = Trace of Precipitation, MM = Missing Value Source: NWS Daily Summary

Daily Weather History Graph

Daily Weather History Graph

Search for Another Location

Airport:

Trip Planner

Search our weather history database for the weather conditions in past years. The results will help you decide how hot, cold, wet, or windy it might be!

Date:

Astronomy

Dec. 23, 2013 Rise Set
Actual Time 7:13 AM EST 4:10 PM EST
Civil Twilight 6:40 AM EST 4:43 PM EST
Nautical Twilight 6:04 AM EST 5:19 PM EST
Astronomical Twilight 5:29 AM EST 5:54 PM EST
Moon 10:27 PM EST (12/23) 10:27 AM EST (12/23)
Length of Visible Light 10h 03m
Length of Day
8h 57m
Waning Gibbous, 68% of the Moon is Illuminated
Dec 23
Waning Gibbous
Dec 25
Last Quarter
Jan 1
New
Jan 7
First Quarter
Jan 15
Full

Hourly Weather History & Observations

Time (EST) Temp. Dew Point Humidity Pressure Visibility Wind Dir Wind Speed Gust Speed Precip Events Conditions
12:15 AM 28.4 °F 24.8 °F 86% 30.03 in 2.5 mi Calm Calm - N/A   Overcast
12:35 AM 28.4 °F 24.8 °F 86% 30.05 in 3.0 mi Calm Calm - N/A   Overcast
12:55 AM 28.4 °F 23.0 °F 80% 30.04 in 3.0 mi Calm Calm - N/A   Overcast
1:15 AM 28.4 °F 23.0 °F 80% 30.03 in 3.0 mi Calm Calm - N/A   Overcast
1:35 AM 26.6 °F 23.0 °F 86% 30.05 in 4.0 mi Calm Calm - N/A   Overcast
1:55 AM 26.6 °F 24.8 °F 93% 30.05 in 5.0 mi Calm Calm - N/A   Overcast
2:15 AM 26.6 °F 26.6 °F 100% 30.05 in 5.0 mi Calm Calm - N/A   Overcast
2:35 AM 26.6 °F 24.8 °F 93% 30.05 in 5.0 mi Calm Calm - N/A   Overcast
2:55 AM 26.6 °F 23.0 °F 86% 30.06 in 5.0 mi Calm Calm - N/A   Overcast
3:15 AM 26.6 °F 23.0 °F 86% 30.06 in 4.0 mi Calm Calm - N/A   Overcast
3:35 AM 26.6 °F 21.2 °F 80% 30.05 in 4.0 mi Calm Calm - N/A   Overcast
3:55 AM 26.6 °F 23.0 °F 86% 30.05 in 3.0 mi Calm Calm - N/A   Overcast
4:15 AM 26.6 °F 23.0 °F 86% 30.07 in 2.5 mi Calm Calm - N/A   Overcast
4:35 AM 26.6 °F 26.6 °F 100% 30.06 in 1.8 mi Calm Calm - N/A   Overcast
4:55 AM 26.6 °F 26.6 °F 100% 30.07 in 1.5 mi Calm Calm - N/A   Overcast
5:15 AM 26.6 °F 26.6 °F 100% 30.08 in 2.0 mi Calm Calm - N/A   Overcast
5:35 AM 28.4 °F 26.6 °F 93% 30.07 in 2.0 mi Calm Calm - N/A   Overcast
5:55 AM 28.4 °F 26.6 °F 93% 30.07 in 2.0 mi Calm Calm - N/A   Overcast
6:15 AM 28.4 °F 26.6 °F 93% 30.06 in 2.5 mi Calm Calm - N/A   Overcast
6:35 AM 28.4 °F 24.8 °F 86% 30.04 in 3.0 mi Calm Calm - N/A   Overcast
6:55 AM 28.4 °F 24.8 °F 86% 30.04 in 5.0 mi Calm Calm - N/A   Overcast
7:15 AM 28.4 °F 24.8 °F 86% 30.05 in 3.0 mi Calm Calm - N/A   Overcast
7:35 AM 28.4 °F 24.8 °F 86% 30.05 in 2.0 mi Calm Calm - N/A   Overcast
7:55 AM 28.4 °F 24.8 °F 86% 30.05 in 2.5 mi Calm Calm - N/A   Overcast
8:15 AM 28.4 °F 24.8 °F 86% 30.07 in 3.0 mi Calm Calm - N/A   Overcast
8:35 AM 28.4 °F 26.6 °F 93% 30.05 in 2.5 mi Calm Calm - N/A   Overcast
8:55 AM 28.4 °F 24.8 °F 86% 30.08 in 5.0 mi Calm Calm - 0.01 in   Overcast
9:15 AM 30.2 °F 26.6 °F 86% 30.08 in 7.0 mi Calm Calm - N/A   Overcast
9:35 AM 30.2 °F 26.6 °F 86% 30.10 in 5.0 mi Calm Calm - 0.02 in   Overcast
9:55 AM 30.2 °F 28.4 °F 93% 30.07 in 8.0 mi Calm Calm - 0.02 in   Overcast
10:15 AM 30.2 °F 28.4 °F 93% 30.05 in 10.0 mi Calm Calm - 0.01 in   Overcast
10:35 AM 30.2 °F 28.4 °F 93% 30.04 in 10.0 mi Calm Calm - 0.02 in   Overcast
10:55 AM 30.2 °F 28.4 °F 93% 30.03 in 10.0 mi Calm Calm - 0.03 in   Overcast
11:15 AM 30.2 °F 28.4 °F 93% 30.02 in 10.0 mi Calm Calm - 0.02 in   Overcast
11:35 AM 30.2 °F 28.4 °F 93% 30.00 in 6.0 mi Calm Calm - 0.03 in   Overcast
11:55 AM 32.0 °F 28.4 °F 87% 30.01 in 10.0 mi Calm Calm - 0.05 in   Overcast
12:15 PM 32.0 °F 26.6 °F 80% 30.00 in 10.0 mi Calm Calm - 0.01 in   Overcast
12:35 PM 32.0 °F 28.4 °F 87% 30.01 in 10.0 mi Calm Calm - 0.01 in   Overcast
12:55 PM 32.0 °F 30.2 °F 93% 29.99 in 4.0 mi Calm Calm - 0.01 in   Overcast
1:15 PM 32.0 °F 30.2 °F 93% 29.98 in 7.0 mi Calm Calm - 0.01 in   Overcast
1:35 PM 32.0 °F 28.4 °F 87% 29.98 in 8.0 mi Calm Calm - 0.01 in   Overcast
1:55 PM 32.0 °F 28.4 °F 87% 29.98 in 10.0 mi Calm Calm - 0.01 in   Overcast
2:15 PM 32.0 °F 30.2 °F 93% 29.99 in 10.0 mi Calm Calm - N/A   Overcast
2:35 PM 33.8 °F 28.4 °F 81% 30.00 in 5.0 mi Calm Calm - N/A   Overcast
2:55 PM 32.0 °F 28.4 °F 87% 29.97 in 2.5 mi Calm Calm - 0.01 in   Overcast
3:15 PM 32.0 °F 30.2 °F 93% 29.97 in 5.0 mi Calm Calm - 0.01 in   Overcast
3:35 PM 32.0 °F 28.4 °F 87% 29.97 in 4.0 mi Calm Calm - 0.02 in   Overcast
3:55 PM 32.0 °F 28.4 °F 87% 29.98 in 10.0 mi Calm Calm - 0.03 in   Overcast
4:15 PM 32.0 °F 30.2 °F 93% 29.96 in 5.0 mi Calm Calm - N/A   Overcast
4:35 PM 32.0 °F 28.4 °F 87% 29.98 in 10.0 mi Calm Calm - N/A   Overcast
4:55 PM 32.0 °F 30.2 °F 93% 29.98 in 9.0 mi Calm Calm - N/A   Overcast
5:15 PM 32.0 °F 28.4 °F 87% 29.97 in 5.0 mi Calm Calm - N/A   Overcast
5:35 PM 33.8 °F 30.2 °F 87% 29.99 in 5.0 mi Calm Calm - N/A   Overcast
5:55 PM 32.0 °F 30.2 °F 93% 29.99 in 8.0 mi Calm Calm - N/A   Overcast
6:15 PM 33.8 °F 28.4 °F 81% 30.00 in 5.0 mi Calm Calm - N/A   Overcast
6:35 PM 33.8 °F 32.0 °F 93% 30.01 in 5.0 mi Calm Calm - 0.01 in   Overcast
6:55 PM 33.8 °F 28.4 °F 81% 30.02 in 4.0 mi Calm Calm - 0.02 in   Overcast
7:15 PM 33.8 °F 30.2 °F 87% 30.02 in 5.0 mi Calm Calm - 0.01 in   Overcast
7:35 PM 32.0 °F 30.2 °F 93% 30.02 in 5.0 mi Calm Calm - 0.01 in   Overcast
7:55 PM 32.0 °F 28.4 °F 87% 30.03 in 5.0 mi Calm Calm - 0.02 in   Overcast
8:15 PM 32.0 °F 30.2 °F 93% 30.03 in 4.0 mi Calm Calm - 0.01 in   Overcast
8:35 PM 32.0 °F 28.4 °F 87% 30.05 in 3.0 mi Calm Calm - 0.01 in   Overcast
8:55 PM 32.0 °F 30.2 °F 93% 30.04 in 3.0 mi Calm Calm - 0.01 in   Overcast
9:15 PM 32.0 °F 28.4 °F 87% 30.04 in 4.0 mi Calm Calm - N/A   Overcast
9:35 PM 32.0 °F 30.2 °F 93% 30.05 in 5.0 mi Calm Calm - N/A   Overcast
9:55 PM 32.0 °F 28.4 °F 87% 30.04 in 5.0 mi Calm Calm - N/A   Overcast
10:15 PM 32.0 °F 28.4 °F 87% 30.04 in 5.0 mi Calm Calm - N/A   Overcast
10:35 PM 33.8 °F 30.2 °F 87% 30.05 in 6.0 mi Calm Calm - N/A   Partly Cloudy
10:55 PM 33.8 °F 28.4 °F 81% 30.07 in 5.0 mi Calm Calm - N/A   Scattered Clouds
11:15 PM 32.0 °F 30.2 °F 93% 30.06 in 4.0 mi Calm Calm - N/A   Overcast
11:35 PM 33.8 °F 28.4 °F 81% 30.07 in 5.0 mi Calm Calm - N/A   Mostly Cloudy
11:55 PM 32.0 °F 28.4 °F 87% 30.06 in 2.5 mi Calm Calm - N/A   Mostly Cloudy